Pompano Beach, FL

2:28 PM EST on February 08, 2016 (GMT -0500)
Pompano Beach

Weather History for KPMP - February, 2013

Change the Weather History Date:

Friday, February 22, 2013

  Actual Average Record
Temperature  
Mean Temperature 76 °F -  
Max Temperature 80 °F 79 °F 86 °F (1989)
Min Temperature 73 °F 61 °F 36 °F (1977)
Cooling Degree Days 12    
Growing Degree Days 26 (Base 50)    
Moisture  
Dew Point 70 °F    
Average Humidity 83    
Maximum Humidity 90    
Minimum Humidity 74    
Precipitation  
Precipitation 0.00 in - - ()
Sea Level Pressure  
Sea Level Pressure 30.07 in    
Wind  
Wind Speed 13 mph (SE)    
Max Wind Speed 17 mph    
Max Gust Speed 25 mph    
Visibility 10 miles    
Events      
Averages and records for this station are not official NWS values.
T = Trace of Precipitation, MM = Missing Value Source: NWS Daily Summary

Daily Weather History Graph

Daily Weather History Graph

Search for Another Location

Airport or City:

Trip Planner

Search our weather history database for the weather conditions in past years. The results will help you decide how hot, cold, wet, or windy it might be!

Date:

Astronomy

Feb. 22, 2013 Rise Set
Actual Time 6:50 AM EST 6:17 PM EST
Civil Twilight 6:26 AM EST 6:41 PM EST
Nautical Twilight 5:59 AM EST 7:08 PM EST
Astronomical Twilight 5:33 AM EST 7:35 PM EST
Moon 3:38 PM EST (2/22) 4:22 AM EST (2/22)
Length of Visible Light 12h 14m
Length of Day
11h 27m
Waxing Gibbous, 90% of the Moon is Illuminated
Feb 22
Waxing Gibbous
Feb 25
Full
Mar 4
Last Quarter
Mar 11
New
Mar 19
First Quarter

Hourly Weather History & Observations

Time (EST) Temp. Heat Index Dew Point Humidity Pressure Visibility Wind Dir Wind Speed Gust Speed Precip Events Conditions
12:53 AM 73.0 °F - 68.0 °F 84% 30.06 in 10.0 mi SE 11.5 mph - N/A   Partly Cloudy
1:53 AM 73.0 °F - 68.0 °F 84% 30.05 in 10.0 mi SE 11.5 mph - N/A   Partly Cloudy
2:53 AM 73.0 °F - 69.1 °F 87% 30.04 in 10.0 mi ESE 13.8 mph - N/A   Partly Cloudy
3:53 AM 73.0 °F - 69.1 °F 87% 30.03 in 10.0 mi ESE 11.5 mph - N/A   Partly Cloudy
4:53 AM 73.9 °F - 70.0 °F 87% 30.04 in 10.0 mi SE 15.0 mph - N/A   Mostly Cloudy
5:11 AM 73.4 °F - 69.8 °F 88% 30.04 in 10.0 mi ESE 12.7 mph - N/A   Scattered Clouds
5:53 AM 73.0 °F - 70.0 °F 90% 30.06 in 10.0 mi ESE 11.5 mph - N/A   Clear
6:53 AM 73.0 °F - 70.0 °F 90% 30.08 in 10.0 mi SE 10.4 mph - N/A   Partly Cloudy
7:53 AM 75.0 °F - 71.1 °F 87% 30.10 in 10.0 mi SE 10.4 mph - N/A   Scattered Clouds
8:53 AM 77.0 °F - 70.0 °F 79% 30.10 in 10.0 mi SE 17.3 mph - N/A   Clear
9:53 AM 79.0 °F - 71.1 °F 77% 30.11 in 10.0 mi SE 15.0 mph - N/A   Partly Cloudy
10:53 AM 79.0 °F - 71.1 °F 77% 30.12 in 10.0 mi SE 16.1 mph - N/A   Scattered Clouds
12:53 PM 80.1 °F 83.6 °F 71.1 °F 74% 30.09 in 10.0 mi SE 16.1 mph - N/A   Scattered Clouds
1:53 PM 80.1 °F 83.6 °F 71.1 °F 74% 30.06 in 10.0 mi SSE 17.3 mph 21.9 mph N/A   Scattered Clouds
2:53 PM 79.0 °F - 70.0 °F 74% 30.06 in 10.0 mi SSE 12.7 mph 20.7 mph N/A   Scattered Clouds
3:53 PM 79.0 °F - 70.0 °F 74% 30.05 in 10.0 mi SSE 11.5 mph - N/A   Partly Cloudy
4:53 PM 78.1 °F - 70.0 °F 76% 30.06 in 10.0 mi SE 12.7 mph - N/A   Scattered Clouds
5:53 PM 75.9 °F - 70.0 °F 82% 30.06 in 10.0 mi ESE 15.0 mph - N/A   Clear
6:53 PM 75.0 °F - 70.0 °F 84% 30.07 in 10.0 mi SE 13.8 mph - N/A   Clear
7:53 PM 75.0 °F - 71.1 °F 87% 30.08 in 10.0 mi ESE 16.1 mph - N/A   Scattered Clouds
8:53 PM 75.0 °F - 71.1 °F 87% 30.08 in 10.0 mi ESE 16.1 mph - N/A   Scattered Clouds
9:53 PM 75.0 °F - 71.1 °F 87% 30.09 in 10.0 mi ESE 13.8 mph - N/A   Clear
10:53 PM 73.9 °F - 70.0 °F 87% 30.09 in 10.0 mi SE 11.5 mph - N/A   Clear
11:53 PM 73.0 °F - 69.1 °F 87% 30.06 in 10.0 mi SE 17.3 mph 25.3 mph N/A   Clear